sat.trackr.live / text

‹ back to catalog

STARLINK-31490

NORAD 59222 · 2024-046X

PAYLOAD ACTIVE UNKNOWN

§ Identity

Operator
Country
US
Launch date
2024-03-11
Launch site
AFWTR
Launch vehicle
Mass (kg)
RCS (m²)

Purposes: comms

External: N2YO · Heavens-Above · Gunter

§ Orbital elements

Epoch: 2026-09-20T15:58:25.813056Z

Period
93.85 min
Inclination
53.1612°
Eccentricity
0.0001154
Mean motion
15.34405390 rev/d
Perigee alt
461.9 km
Apogee alt
463.5 km
Semi-major
6,840.8 km
B*
5.0436e-5
RAAN
328.8121°
Arg perigee
80.5017°
Mean anomaly
279.6116°
Rev number
14,290

§ Raw data

STARLINK-314901 59222U 24046X   26263.66557654  .00001328  00000+0  50436-4 0  99942 59222  53.1612 328.8121 0001154  80.5017 279.6116 15.34405390142909

JSON: /api/v1/satellites/59222 · /tle

For live sub-satellite position, see the globe view (requires WebGL).

§ Visibility from observer

Set your observer location to see the next 7 days of passes ≥ 10°. The values pass through the URL so the page stays shareable.

No JS? Fill the form by hand. The geolocation button needs JavaScript.